Voltar ao catálogo

FENGYUN 1C DEB

AtivoSSO
NORAD 38513·DEBRIS·🇨🇳 China

Lançado May 10, 1999 de Taiyuan Satellite Launch Center

Loading…

Próximas Passagens (próximas 24 horas)

TLE

AtualizadoSource: Space-Track

Época: Sep 13, 2026, 12:27 UTC

1 38513U 99025ESY 26256.51915668  .00007902  00000-0  61520-3 0  9992
2 38513  97.6005 149.2370 0227891  66.2128 296.2801 14.83164700677214

Acompanhe FENGYUN 1C DEB em tempo real com AllMySat

Download on the App Store